#timestamp,LO_Frequency,Hit,StdDev 
1633179615.1,286046997.0,N
1633179635.8,286046996.7,N
1633179655.7,286046996.5,N
1633179675.5,286046997.3,N
1633179695.4,286046997.4,N
1633179715.2,286046996.6,N
1633179735.0,286047000.7,N
1633179735.9,286047000.7,N
1633179755.8,286047002.5,N
1633179775.6,286047002.0,N
1633179795.4,286047002.2,N
1633179815.3,286047002.4,N
1633179835.1,286046999.7,N
1633179855.9,286047001.9,N
1633179875.7,286047003.1,N
1633179895.5,286047003.7,N
1633179915.4,286047002.3,N
1633179935.2,286047000.2,N
1633179985.1,286046999.4,E
1633179995.9,286046998.6,N
1633180015.7,286047001.1,P
1633180035.6,286046999.3,N
1633180055.4,286046999.2,N
1633180075.3,286046998.9,N
1633180095.1,286047002.7,Y
1633180115.8,286047002.1,P
1633180135.7,286047002.1,N
1633180155.5,286047001.9,N
1633180175.4,286047002.4,N
1633180195.2,286047002.4,N
1633180215.0,286047000.3,N
1633180215.9,286047000.3,N
1633180235.8,286047001.6,N
1633180255.6,286047001.5,N
1633180275.5,286047004.4,Y
1633180295.3,286047000.9,P
1633180315.1,286046996.5,P
1633180335.9,286046999.4,N
1633180355.7,286046998.4,N
1633180375.5,286047000.7,N
1633180395.4,286047000.5,N
1633180415.2,286046999.7,N
1633180435.1,286047000.4,N
1633180436.0,286047000.4,N
1633180455.8,286047000.8,N
1633180475.6,286047001.1,N
1633180495.5,286047001.2,N
1633180515.3,286046996.5,N
1633180535.2,286046997.2,N
1633180555.9,286046996.9,N
1633180575.7,286046998.9,N
1633180595.6,286046996.5,N
1633180615.4,286046997.5,N
1633180635.3,286046996.6,N
1633180655.1,286046999.5,N
1633180656.0,286046999.5,N
1633180675.8,286046999.3,N
1633180695.7,286046998.6,N
1633180715.5,286046998.3,N
1633180735.3,286047001.2,N
1633180755.2,286046998.6,N
1633180775.0,286047000.6,N
1633180775.9,286047000.6,N
1633180795.8,286047000.9,N
1633180815.6,286047001.1,N
1633180835.4,286047001.1,N
1633180855.3,286047000.7,N
1633180875.1,286047001.1,N
1633180895.9,286047000.6,N
1633180915.7,286046999.9,N
1633180935.5,286046998.9,N
1633180955.6,286046996.5,N
1633180975.4,286046996.8,N
1633180995.3,286046996.7,N
1633181015.1,286046994.9,N
1633181016.0,286046994.9,N
1633181035.8,286046997.2,N
1633181055.7,286046999.6,N
1633181075.5,286046998.6,N
1633181095.4,286046998.6,N
1633181115.2,286046999.0,N
1633181135.0,286046997.5,N
1633181135.9,286046997.5,N
1633181155.8,286046995.0,N
1633181175.6,286046996.9,N
1633181195.5,286046996.9,N
1633181215.3,286046997.9,N
1633181235.1,286046995.0,N
1633181255.9,286046995.3,N
1633181275.7,286046995.4,N
1633181295.5,286046997.9,N
1633181315.4,286046997.1,N
1633181335.2,286046997.0,N
1633181355.1,286046997.8,N
1633181356.0,286046997.8,N
1633181375.8,286046999.5,N
1633181395.6,286046996.5,N
1633181415.5,286046998.4,N
1633181435.3,286046998.6,N
1633181455.2,286046996.6,N
1633181475.0,286046999.3,N
1633181475.9,286046999.3,N
1633181495.7,286046996.6,N
1633181515.6,286046998.3,N
1633181535.4,286047001.2,N
1633181555.3,286046999.8,N
1633181575.1,286047000.1,N
1633181576.0,286047000.1,N
1633181595.8,286047002.8,N
1633181615.7,286047002.3,N
1633181635.5,286047002.2,N
1633181655.4,286047002.8,N
1633181675.2,286046999.8,N
1633181695.0,286046999.9,N
1633181695.9,286046999.9,N
1633181715.8,286047000.7,N
1633181735.6,286046998.7,N
1633181755.5,286046998.2,N
1633181775.3,286047000.5,N
1633181795.1,286046998.8,N
1633181815.9,286046998.7,N
1633181835.7,286046999.2,N
1633181855.5,286046999.4,N
1633181875.4,286046996.9,N
1633181895.2,286046996.5,N
1633181915.1,286046996.5,N
1633181916.0,286046996.5,N
1633181935.8,286046999.4,N
1633181955.6,286046997.2,N
1633181975.5,286046997.9,N
1633181995.3,286046996.5,N
1633182015.2,286046998.4,N
1633182035.9,286046999.4,N
1633182055.7,286046996.9,N
1633182075.6,286046994.9,N
1633182095.4,286046999.1,N
1633182115.2,286046998.5,N
1633182135.1,286046997.1,N
1633182136.0,286046997.1,N
1633182155.8,286046995.2,N
1633182175.7,286046995.2,N
1633182195.5,286046995.5,N
1633182215.3,286046995.1,Y
1633182235.2,286046998.4,P
1633182255.0,286047000.7,N
1633182255.9,286047000.7,N
1633182275.8,286047000.3,N
1633182295.6,286046998.8,N
1633182315.4,286046999.4,N
1633182335.3,286046998.8,N
1633182355.1,286047001.2,N
1633182375.8,286046998.8,N
1633182395.7,286046998.3,N
1633182415.5,286047000.3,N
1633182435.4,286046999.7,N
1633182455.2,286047002.3,N
1633182475.0,286047000.0,N
1633182475.9,286047000.0,N
1633182495.8,286046999.7,N
1633182515.6,286047002.4,N
1633182535.4,286047000.2,N
1633182555.3,286047000.3,N
1633182575.1,286047001.1,N
1633182595.9,286046999.9,N
1633182615.7,286046998.3,N
1633182635.5,286046999.2,N
1633182655.4,286046997.7,N
1633182675.2,286046996.9,N
1633182695.0,286046999.3,N
1633182695.9,286046999.3,N
1633182715.8,286046999.2,N
1633182735.6,286046999.4,N
1633182755.5,286046996.5,N
1633182775.3,286046998.8,N
1633182795.1,286046999.6,N
1633182815.9,286046997.8,N
1633182835.7,286046997.2,N
1633182855.5,286046999.2,N
1633182875.4,286046996.9,N
1633182895.2,286046997.9,N
1633182915.1,286046999.2,N
1633182916.0,286046999.2,N
1633182935.8,286047000.7,N
1633182955.6,286047000.3,N
1633182975.5,286046999.3,N
1633182995.3,286046996.7,N
1633183015.2,286046997.0,N
1633183035.9,286046997.8,N
1633183055.7,286046997.7,N
1633183075.6,286046995.2,Y
1633183095.4,286046996.5,P
1633183115.2,286046999.1,N
1633183135.1,286046996.6,N
1633183136.0,286046996.6,N
1633183155.8,286046996.6,N
1633183175.7,286046997.2,N
1633183195.5,286046997.0,N
